Weather Roundup
Issued by NWS

Current Version | Previous Version | Text Only | Print | Product List | Glossary On
Versions: 1 2 3 4 5 6 7 8 9 10 11 12 13 14 15 16 17 18 19 20 21 22 23 24 25 26 27 28 29 30 31 32 33 34 35 36 37 38 39 40 41 42 43 44 45 46 47 48 49 50
313
NZUS93 KARX 081910
HRRWXR

CURRENT HOURLY OBSERVATIONS ACROSS
MUCH OF THE UPPER MISSISSIPPI VALLEY
NATIONAL WEATHER SERVICE LA CROSSE WI
100 PM CST SUN DEC 08 2019


...SOUTHEAST MINNESOTA...


CITY           SKY/WX    TMP DP  RH WIND       PRES   REMARKS
ROCHESTER      FAIR      36  29  75 NW9       29.76S WCI  29
ROCHESTER/MAYO FAIR      37  29  74 NW6       29.76S WCI  32
WINONA         FAIR      41  30  65 W3        29.77S
AUSTIN         FAIR      39  32  75 NW10      29.75F WCI  32
ALBERT LEA     FAIR      34  30  86 NW3       29.76S
DODGE CENTER   FAIR      36  28  75 NW6       29.75F WCI  31
PRESTON        FAIR      37  29  75 CALM      29.76S
OWATONNA       FAIR      34  28  80 NW7       29.77S WCI  28
$$

...ELSEWHERE IN MINNESOTA...


CITY           SKY/WX    TMP DP  RH WIND       PRES   REMARKS
MINNEAPOLIS    CLOUDY    33  28  81 N6        29.79S FOG     WCI  28
INTNL FALLS    CLOUDY    15   0  51 NE12      29.88S WCI   2
DULUTH         CLOUDY    30  23  75 N9        29.76R WCI  22
RED WING       CLOUDY    34  28  80 NW7       29.78R WCI  28
REDWOOD FALLS  CLOUDY    30  27  88 N7        29.80F FOG     WCI  23
MANKATO        CLOUDY    29  27  92 N10       29.80S FOG     WCI  20
WORTHINGTON    FOG       29  28  96 NE14      29.76F VSB 1/4 WCI  18
FAIRMONT       FOG       28  27  93 N12       29.78F VSB 1/2 WCI  18
$$

...SOUTHWEST WISCONSIN...


CITY           SKY/WX    TMP DP  RH WIND       PRES   REMARKS
LA CROSSE      FAIR      44  29  55 SW6       29.76F
PRAIRIE DU CHI FAIR      45  30  56 SW3       29.78F
BOSCOBEL       FAIR      46  31  55 SW6       29.78F
LONE ROCK      FAIR      44  32  62 SW7       29.77F
PLATTEVILLE    FAIR      42  36  79 SW10      29.78F
FORT MC COY    FAIR      41  31  68 W6        29.77S
CAMP DOUGLAS   PTSUNNY   41  30  65 W8        29.75S
MAUSTON-NEW LI FAIR      43  31  63 W7        29.75S
VIROQUA        FAIR      41  33  73 SW6       29.75F
WIS DELLS      FAIR      41  31  67 SW12      29.75F
$$

...ELSEWHERE IN WISCONSIN...


CITY           SKY/WX    TMP DP  RH WIND       PRES   REMARKS
MILWAUKEE      CLOUDY    44  34  67 SW17G23   29.80F
MADISON        CLOUDY    42  32  67 SW9       29.78S
GREEN BAY      FAIR      39  30  70 SW7       29.75S WCI  34
EAU CLAIRE     CLOUDY    36  29  75 NW3       29.76R
BLACK RVR FLS  FAIR      41  30  65 W3        29.75F
MEDFORD        CLOUDY    33  28  82 NW3       29.73R
WAUSAU         FAIR      37  29  72 NW9       29.71S WCI  30
WIS RAPIDS     FAIR      39  29  67 SW6       29.76R WCI  35
MARSHFIELD     FAIR      37  29  72 W5        29.72S WCI  33
RICE LAKE      CLOUDY    35  19  50 N3        29.77R
$$

...NORTHEAST IOWA...


CITY           SKY/WX    TMP DP  RH WIND       PRES   REMARKS
WATERLOO       FAIR      46  32  58 W5        29.76F
DUBUQUE        FAIR      40  33  76 SW12      29.79F WCI  33
DECORAH        FAIR      41  32  70 W5        29.75F
MASON CITY     SUNNY     38  30  73 N9        29.77F WCI  31
CHARLES CITY   FAIR      41  32  70 N5        29.76F
OELWEIN        SUNNY     45  36  70 W6        29.77F
$$

...ELSEWHERE IN IOWA...


CITY           SKY/WX    TMP DP  RH WIND       PRES   REMARKS
DES MOINES     CLOUDY    45  34  65 SW5       29.76F
IOWA CITY      FAIR      47  37  68 SW8       29.81F
FORT DODGE     SUNNY     44  34  67 NE6       29.75F HAZE
MARSHALLTOWN   SUNNY     42  34  73 SW3       29.76F
CEDAR RAPIDS   FAIR      44  36  73 SW9       29.77F
$$

...NORTHERN ILLINOIS...


CITY           SKY/WX    TMP DP  RH WIND       PRES   REMARKS
CHICAGO-OHARE  CLOUDY    44  38  79 SW14G24   29.83F
CHICAGO-MIDWAY CLOUDY    46  39  76 S14G25    29.85F
MOLINE         FAIR      47  39  74 SW10      29.81F
ROCKFORD       CLOUDY    44  38  79 SW12      29.82F
PEORIA         FAIR      49  41  74 S14       29.86F
$$

NOTE: "FAIR" INDICATES FEW OR NO CLOUDS BELOW 12,000 FEET WITH NO
SIGNIFICANT WEATHER AND/OR OBSTRUCTIONS TO VISIBILITY. WIND
SPEEDS ARE IN MILES-PER-HOUR.




USA.gov is the U.S. government's official web portal to all federal, state and local government web resources and services.